Regional Weather Roundup
Issued by NWS

Home | Current Version | Previous Version | Graphics & Text | Print | Product List | Glossary Off
Versions: 1 2 3 4 5 6 7 8 9 10 11 12 13 14 15 16 17 18 19 20 21 22 23 24 25 26 27 28 29 30 31 32 33 34 35 36 37 38 39 40 41 42 43 44 45 46 47 48 49 50

000
ASUS43 KFSD 290210
RWRSD

WEATHER ROUNDUP FOR SOUTH DAKOTA
NATIONAL WEATHER SERVICE SIOUX FALLS SD
900 PM CDT WED JUN 28 2017

NOTE: "FAIR" INDICATES FEW OR NO CLOUDS BELOW 12,000 FEET WITH NO
SIGNIFICANT WEATHER AND/OR OBSTRUCTIONS TO VISIBILITY.


SDZ001>005-009-010-012>017-290300-
NORTHWEST AND NORTH CENTRAL SOUTH DAKOTA

CITY           SKY/WX    TMP DP  RH WIND       PRES   REMARKS
BUFFALO          N/A     73  43  33 S9        29.72R
FAITH            N/A     75  35  23 NE5       29.76R
MOBRIDGE       CLOUDY    72  41  32 N9        29.71R
$$

SDZ012>016-024>037-041>051-057-063-072>074-290300-
SOUTHWEST AND SOUTH CENTRAL SOUTH DAKOTA

CITY           SKY/WX    TMP DP  RH WIND       PRES   REMARKS
RAPID CTY ARPT CLEAR     64  52  64 NW16      29.81R
PIERRE         CLOUDY    73  44  35 N7        29.71R
CUSTER         CLOUDY    58  50  75 E8        29.89F
ELLSWORTH AFB  PTCLDY    66  50  55 W13       29.83R
PHILIP         CLOUDY    79  45  29 NE13G21   29.70F
PINE RIDGE     CLEAR     76  53  44 E5        29.76R
SPEARFISH      FAIR      59  52  77 S6G14     29.86R
WINNER         FAIR      78  49  35 N7        29.72R
$$

SDZ004>011-016>023-039-040-290300-
NORTHEAST SOUTH DAKOTA

CITY           SKY/WX    TMP DP  RH WIND       PRES   REMARKS
ABERDEEN       CLEAR     71  45  39 NW6       29.69R
WATERTOWN      CLEAR     70  50  49 NW8       29.67R
BROOKINGS      CLEAR     73  56  54 NW9       29.67R
SISSETON         N/A     71  62  73 N12       29.64R
$$

SDZ017-020-022-023-036>040-048>070-290300-
SOUTHEAST SOUTH DAKOTA

CITY           SKY/WX    TMP DP  RH WIND       PRES   REMARKS
SIOUX FALLS    PTCLDY    76  63  64 W6        29.66R
HURON          CLEAR     73  49  42 N6        29.68R
CHAMBERLAIN    CLEAR     81  48  31 CALM      29.71R
MITCHELL       CLEAR     77  53  43 N7        29.67R
YANKTON        CLEAR     79  63  57 W7        29.67R
$$

ABBREVIATIONS USED IN REMARKS
   TC - TEMPERATURE IN CELSIUS
  WCI - WIND CHILL INDEX
   HX - HEAT INDEX
  VSB - VISIBILITY




USA.gov is the U.S. government's official web portal to all federal, state and local government web resources and services.